Precipitable_Water
0.65 0.64 0.62 0.60 0.57 0.55 0.56 0.57 0.57 0.58 0.59 0.60 0.60 0.60 0.59 0.59 0.60 0.62 0.68 0.68 0.65 0.63 0.62 0.62 0.63 0.61 0.59 0.56 0.52 0.48 0.46 0.36 0.31 0.30 0.29 0.25 0.34 0.39 0.40 0.43 0.44 0.47 0.59 0.60 0.57 0.60 0.65 0.70 0.65 0.85 0.96 0.87 0.85 0.75 0.85 0.83 0.84 0.84 0.68 0.57 0.41 0.44 0.47 0.55 0.59 0.72 0.79 0.77 0.78 0.91 0.89 0.79 0.76 0.80 0.79 0.97 0.99 0.96 1.00 0.98 1.00 0.96 0.94 1.04 1.08 1.09 1.19 1.30
0.63 0.64 0.62 0.59 0.56 0.56 0.56 0.56 0.55 0.57 0.59 0.59 0.60 0.59 0.59 0.59 0.60 0.64 0.69 0.68 0.64 0.62 0.61 0.61 0.62 0.60 0.57 0.52 0.50 0.48 0.42 0.33 0.25 0.25 0.22 0.29 0.37 0.37 0.37 0.41 0.42 0.43 0.57 0.53 0.52 0.58 0.64 0.63 0.68 0.90 0.83 0.74 0.74 0.67 0.67 0.66 0.74 0.73 0.68 0.49 0.37 0.51 0.50 0.56 0.60 0.76 0.79 0.76 0.89 0.87 0.95 0.96 0.84 0.88 0.86 0.87 0.88 0.99 0.92 0.92 1.03 0.98 1.00 1.05 1.08 1.10 1.08 1.22
0.61 0.63 0.63 0.61 0.58 0.55 0.54 0.55 0.54 0.55 0.57 0.58 0.59 0.59 0.58 0.59 0.59 0.65 0.70 0.67 0.63 0.60 0.60 0.61 0.60 0.56 0.52 0.51 0.48 0.46 0.41 0.28 0.27 0.20 0.19 0.26 0.36 0.36 0.35 0.35 0.38 0.44 0.48 0.46 0.52 0.66 0.65 0.62 0.77 0.77 0.74 0.65 0.60 0.53 0.53 0.54 0.62 0.54 0.47 0.42 0.39 0.46 0.55 0.66 0.72 0.71 0.81 0.81 0.82 0.87 0.87 0.95 0.88 0.96 1.03 0.87 0.86 0.93 0.98 0.96 1.00 0.95 0.90 0.98 1.03 1.01 1.05 1.11
0.59 0.62 0.62 0.60 0.58 0.55 0.55 0.55 0.54 0.54 0.56 0.57 0.58 0.58 0.58 0.58 0.60 0.66 0.70 0.66 0.62 0.59 0.60 0.58 0.55 0.51 0.50 0.49 0.49 0.49 0.39 0.28 0.17 0.15 0.25 0.30 0.30 0.31 0.32 0.33 0.35 0.42 0.45 0.47 0.60 0.66 0.61 0.65 0.70 0.71 0.65 0.65 0.52 0.47 0.50 0.53 0.54 0.46 0.44 0.40 0.38 0.44 0.56 0.63 0.71 0.73 0.76 0.85 0.85 0.81 0.89 0.94 1.02 1.00 1.12 0.83 0.84 0.98 0.91 1.07 0.97 0.90 0.93 0.99 0.96 0.96 1.01 1.04
0.57 0.59 0.60 0.59 0.58 0.56 0.55 0.53 0.54 0.53 0.54 0.56 0.56 0.57 0.58 0.57 0.59 0.67 0.69 0.64 0.61 0.57 0.54 0.52 0.50 0.50 0.49 0.51 0.47 0.51 0.33 0.14 0.26 0.43 0.43 0.32 0.30 0.30 0.29 0.30 0.34 0.39 0.43 0.50 0.62 0.69 0.63 0.56 0.61 0.63 0.63 0.55 0.51 0.45 0.46 0.44 0.41 0.45 0.46 0.45 0.44 0.50 0.55 0.66 0.74 0.82 0.87 0.83 0.80 0.85 0.86 0.85 0.97 1.06 1.02 0.96 0.86 0.83 0.95 1.05 0.97 1.00 0.98 0.97 0.95 0.95 0.99 1.03
0.54 0.57 0.60 0.61 0.59 0.55 0.54 0.53 0.53 0.52 0.53 0.54 0.55 0.56 0.57 0.57 0.59 0.67 0.68 0.65 0.60 0.52 0.48 0.48 0.49 0.48 0.50 0.50 0.51 0.47 0.27 0.18 0.40 0.51 0.47 0.44 0.38 0.32 0.29 0.28 0.30 0.38 0.45 0.48 0.54 0.64 0.55 0.52 0.50 0.58 0.58 0.55 0.42 0.37 0.49 0.38 0.37 0.41 0.42 0.47 0.58 0.62 0.66 0.72 0.70 0.69 0.75 0.78 0.81 0.79 0.86 0.95 0.89 0.97 0.97 1.03 1.05 0.97 1.11 1.20 1.09 1.03 1.05 1.08 1.05 0.94 0.99 0.98
0.52 0.54 0.57 0.59 0.58 0.56 0.54 0.53 0.52 0.52 0.52 0.53 0.55 0.54 0.56 0.57 0.58 0.68 0.68 0.64 0.59 0.49 0.46 0.44 0.44 0.45 0.47 0.51 0.50 0.37 0.22 0.22 0.33 0.54 0.49 0.43 0.40 0.34 0.30 0.26 0.33 0.36 0.43 0.43 0.48 0.56 0.53 0.45 0.50 0.54 0.59 0.50 0.27 0.31 0.29 0.30 0.41 0.44 0.42 0.40 0.49 0.51 0.62 0.66 0.62 0.72 0.76 0.72 0.71 0.72 0.80 0.88 0.91 0.80 1.13 1.07 1.10 1.22 1.19 1.27 1.21 1.11 1.07 1.17 0.97 0.97 1.01 1.02
0.51 0.52 0.55 0.57 0.58 0.57 0.54 0.52 0.52 0.51 0.51 0.53 0.53 0.55 0.55 0.56 0.58 0.69 0.68 0.64 0.57 0.48 0.47 0.45 0.45 0.43 0.44 0.42 0.33 0.25 0.20 0.16 0.30 0.50 0.45 0.34 0.33 0.32 0.27 0.28 0.29 0.31 0.40 0.43 0.47 0.50 0.51 0.41 0.45 0.56 0.53 0.42 0.30 0.37 0.33 0.26 0.40 0.48 0.44 0.54 0.52 0.59 0.58 0.63 0.67 0.67 0.62 0.66 0.79 0.77 0.69 0.71 0.88 0.90 1.05 1.05 1.13 1.21 1.22 1.25 1.18 1.18 1.12 1.12 1.03 1.02 1.04 1.04
0.49 0.50 0.52 0.56 0.57 0.56 0.54 0.51 0.51 0.51 0.51 0.52 0.53 0.54 0.55 0.55 0.58 0.69 0.69 0.64 0.57 0.49 0.50 0.50 0.43 0.41 0.46 0.38 0.28 0.26 0.24 0.35 0.46 0.45 0.41 0.31 0.25 0.25 0.24 0.25 0.29 0.28 0.35 0.42 0.51 0.55 0.46 0.41 0.46 0.57 0.44 0.38 0.33 0.28 0.32 0.36 0.44 0.46 0.51 0.55 0.49 0.57 0.59 0.65 0.60 0.53 0.60 0.61 0.58 0.64 0.56 0.63 0.75 0.86 0.80 0.98 1.14 1.20 1.17 1.09 1.15 1.10 1.17 1.09 1.08 1.10 1.05 1.02
0.48 0.49 0.50 0.54 0.55 0.56 0.55 0.52 0.52 0.50 0.49 0.51 0.53 0.53 0.54 0.55 0.57 0.69 0.70 0.65 0.58 0.50 0.53 0.52 0.46 0.42 0.35 0.28 0.24 0.17 0.48 0.61 0.50 0.43 0.40 0.27 0.22 0.22 0.22 0.26 0.27 0.31 0.35 0.39 0.49 0.51 0.43 0.42 0.53 0.58 0.57 0.53 0.29 0.31 0.34 0.40 0.44 0.53 0.40 0.54 0.57 0.57 0.58 0.54 0.54 0.57 0.58 0.62 0.58 0.52 0.52 0.60 0.77 0.78 0.61 0.85 1.08 1.21 1.11 1.13 1.18 1.13 1.04 1.02 1.05 1.12 1.09 1.11
0.48 0.48 0.49 0.51 0.54 0.54 0.54 0.52 0.50 0.51 0.50 0.49 0.52 0.54 0.53 0.54 0.56 0.68 0.70 0.66 0.60 0.51 0.54 0.53 0.46 0.41 0.26 0.31 0.21 0.18 0.59 0.58 0.62 0.52 0.37 0.28 0.20 0.20 0.19 0.25 0.28 0.31 0.35 0.38 0.45 0.49 0.42 0.46 0.60 0.60 0.49 0.40 0.29 0.33 0.33 0.40 0.53 0.53 0.57 0.57 0.59 0.59 0.58 0.60 0.59 0.56 0.65 0.63 0.65 0.64 0.62 0.72 0.72 0.70 0.66 0.80 0.87 0.97 1.14 1.13 1.09 1.08 1.08 1.05 1.06 1.10 1.13 1.16
0.48 0.48 0.48 0.50 0.52 0.54 0.54 0.53 0.50 0.50 0.49 0.49 0.51 0.53 0.54 0.54 0.55 0.66 0.70 0.66 0.61 0.54 0.53 0.56 0.47 0.39 0.31 0.25 0.24 0.37 0.55 0.57 0.53 0.56 0.46 0.28 0.19 0.20 0.21 0.26 0.27 0.28 0.32 0.35 0.40 0.46 0.39 0.42 0.53 0.55 0.39 0.37 0.30 0.34 0.43 0.51 0.55 0.54 0.59 0.50 0.55 0.62 0.57 0.60 0.59 0.70 0.71 0.63 0.74 0.75 0.66 0.62 0.68 0.56 0.72 0.83 0.92 0.98 0.94 0.98 1.14 1.09 1.15 1.14 1.13 1.08 1.18 1.31
0.48 0.48 0.49 0.50 0.52 0.52 0.53 0.53 0.51 0.50 0.49 0.48 0.50 0.52 0.54 0.54 0.57 0.67 0.70 0.66 0.62 0.55 0.54 0.59 0.49 0.41 0.32 0.21 0.16 0.49 0.53 0.56 0.52 0.49 0.48 0.36 0.24 0.22 0.22 0.26 0.28 0.28 0.32 0.36 0.39 0.44 0.43 0.48 0.54 0.51 0.44 0.27 0.33 0.29 0.45 0.52 0.51 0.59 0.56 0.58 0.55 0.55 0.53 0.62 0.72 0.68 0.68 0.65 0.74 0.80 0.65 0.62 0.58 0.64 0.76 0.84 0.91 0.91 0.89 0.84 0.83 1.08 1.07 1.13 1.08 1.02 1.05 1.24
0.47 0.48 0.49 0.50 0.51 0.50 0.51 0.52 0.51 0.50 0.49 0.48 0.49 0.52 0.54 0.54 0.62 0.70 0.71 0.67 0.65 0.59 0.58 0.65 0.63 0.33 0.33 0.26 0.37 0.36 0.41 0.56 0.60 0.46 0.41 0.41 0.32 0.22 0.21 0.25 0.28 0.28 0.32 0.35 0.35 0.40 0.41 0.49 0.56 0.55 0.48 0.36 0.32 0.41 0.37 0.48 0.56 0.50 0.60 0.60 0.47 0.49 0.49 0.68 0.71 0.68 0.73 0.72 0.77 0.77 0.64 0.68 0.66 0.66 0.76 0.81 0.89 0.87 0.85 0.84 0.84 0.93 1.02 0.98 0.94 0.96 1.06 1.25
0.49 0.48 0.49 0.50 0.51 0.51 0.51 0.52 0.51 0.50 0.50 0.49 0.48 0.51 0.54 0.56 0.66 0.72 0.73 0.69 0.69 0.62 0.61 0.73 0.65 0.39 0.23 0.28 0.46 0.44 0.41 0.43 0.51 0.38 0.38 0.38 0.34 0.23 0.20 0.24 0.26 0.27 0.29 0.33 0.34 0.36 0.42 0.53 0.55 0.46 0.39 0.42 0.40 0.38 0.41 0.47 0.49 0.54 0.61 0.48 0.51 0.51 0.56 0.63 0.73 0.68 0.68 0.71 0.80 0.77 0.69 0.72 0.70 0.68 0.80 0.81 0.86 0.85 0.84 0.91 0.89 0.99 1.03 0.95 0.98 0.99 1.17 1.20
0.50 0.50 0.48 0.49 0.51 0.50 0.50 0.51 0.52 0.50 0.51 0.49 0.47 0.49 0.56 0.62 0.67 0.75 0.78 0.75 0.70 0.65 0.61 0.56 0.61 0.48 0.39 0.36 0.70 0.58 0.39 0.24 0.28 0.37 0.38 0.40 0.35 0.24 0.23 0.25 0.26 0.26 0.27 0.30 0.34 0.32 0.44 0.53 0.45 0.45 0.41 0.39 0.37 0.35 0.41 0.46 0.45 0.55 0.59 0.51 0.56 0.52 0.57 0.56 0.65 0.63 0.75 0.68 0.76 0.69 0.68 0.75 0.77 0.74 0.80 0.82 0.83 0.85 0.80 0.88 0.99 1.07 1.06 1.02 0.96 1.00 1.25 1.09
0.50 0.49 0.49 0.50 0.51 0.52 0.50 0.50 0.51 0.51 0.51 0.50 0.47 0.48 0.58 0.66 0.75 0.82 0.84 0.76 0.66 0.64 0.54 0.54 0.71 0.71 0.25 0.48 0.59 0.47 0.30 0.20 0.29 0.35 0.38 0.41 0.38 0.31 0.25 0.26 0.24 0.23 0.25 0.29 0.41 0.48 0.45 0.43 0.45 0.43 0.40 0.36 0.41 0.42 0.41 0.38 0.42 0.51 0.59 0.56 0.64 0.57 0.61 0.53 0.64 0.56 0.73 0.63 0.62 0.71 0.64 0.75 0.75 0.76 0.74 0.78 0.82 0.80 0.84 0.82 0.84 0.97 1.13 1.08 1.05 1.14 1.27 1.12
0.51 0.50 0.49 0.49 0.49 0.50 0.50 0.49 0.51 0.52 0.50 0.51 0.45 0.48 0.57 0.70 0.83 0.88 0.89 0.72 0.67 0.61 0.59 0.64 0.63 0.44 0.33 0.43 0.35 0.36 0.29 0.21 0.30 0.34 0.36 0.37 0.36 0.29 0.25 0.22 0.22 0.24 0.26 0.31 0.44 0.39 0.45 0.40 0.40 0.33 0.33 0.33 0.34 0.41 0.38 0.38 0.43 0.44 0.47 0.50 0.56 0.57 0.64 0.62 0.55 0.54 0.60 0.56 0.59 0.65 0.73 0.76 0.74 0.75 0.73 0.73 0.86 0.80 0.74 0.82 0.82 0.87 0.99 1.09 1.04 1.11 1.09 1.14
0.52 0.52 0.51 0.50 0.50 0.50 0.49 0.49 0.49 0.51 0.51 0.51 0.46 0.52 0.66 0.81 0.92 0.91 0.80 0.75 0.52 0.40 0.26 0.36 0.38 0.23 0.27 0.41 0.43 0.45 0.21 0.33 0.37 0.33 0.29 0.31 0.29 0.28 0.24 0.22 0.21 0.22 0.21 0.29 0.35 0.35 0.38 0.40 0.35 0.32 0.30 0.28 0.28 0.36 0.40 0.47 0.46 0.47 0.50 0.51 0.54 0.52 0.58 0.56 0.64 0.65 0.61 0.54 0.53 0.61 0.65 0.72 0.73 0.71 0.72 0.73 0.80 0.80 0.75 0.82 0.84 0.87 0.88 0.99 1.03 1.16 1.10 1.07
0.52 0.51 0.52 0.52 0.51 0.50 0.49 0.47 0.48 0.50 0.52 0.48 0.44 0.48 0.61 0.72 0.73 0.68 0.75 0.73 0.56 0.45 0.46 0.49 0.50 0.41 0.41 0.42 0.36 0.34 0.31 0.48 0.33 0.32 0.30 0.32 0.28 0.23 0.19 0.19 0.19 0.20 0.21 0.24 0.31 0.32 0.37 0.32 0.28 0.26 0.29 0.26 0.29 0.37 0.41 0.44 0.43 0.47 0.50 0.47 0.52 0.52 0.53 0.56 0.59 0.65 0.63 0.55 0.58 0.66 0.75 0.72 0.71 0.69 0.71 0.74 0.78 0.80 0.77 0.84 0.80 0.88 0.90 0.88 0.92 0.92 0.97 0.97
0.53 0.51 0.51 0.51 0.52 0.51 0.49 0.46 0.46 0.49 0.51 0.48 0.45 0.42 0.37 0.50 0.40 0.47 0.49 0.48 0.55 0.52 0.45 0.45 0.49 0.44 0.43 0.46 0.34 0.29 0.30 0.35 0.37 0.31 0.29 0.37 0.31 0.21 0.18 0.18 0.19 0.17 0.21 0.26 0.29 0.35 0.34 0.29 0.28 0.26 0.30 0.26 0.29 0.37 0.41 0.42 0.45 0.42 0.41 0.40 0.41 0.45 0.46 0.48 0.52 0.58 0.62 0.55 0.56 0.64 0.73 0.75 0.76 0.73 0.72 0.76 0.76 0.75 0.73 0.83 0.80 0.85 0.88 0.91 0.91 0.91 0.89 0.94
0.53 0.52 0.52 0.50 0.51 0.51 0.48 0.45 0.45 0.47 0.49 0.50 0.50 0.39 0.42 0.53 0.52 0.56 0.52 0.35 0.41 0.44 0.44 0.49 0.50 0.40 0.51 0.51 0.37 0.36 0.43 0.33 0.28 0.28 0.30 0.31 0.36 0.23 0.18 0.18 0.19 0.17 0.21 0.25 0.29 0.29 0.27 0.24 0.28 0.27 0.31 0.29 0.30 0.35 0.41 0.39 0.38 0.40 0.35 0.33 0.35 0.43 0.45 0.52 0.52 0.58 0.61 0.58 0.60 0.68 0.72 0.76 0.80 0.77 0.77 0.78 0.74 0.80 0.82 0.88 0.82 0.87 0.86 0.92 0.92 0.95 0.98 1.00
0.51 0.52 0.52 0.52 0.49 0.51 0.47 0.44 0.41 0.44 0.48 0.54 0.49 0.48 0.51 0.58 0.55 0.59 0.56 0.45 0.34 0.39 0.38 0.42 0.42 0.38 0.44 0.48 0.45 0.49 0.37 0.30 0.22 0.24 0.25 0.25 0.33 0.24 0.20 0.18 0.19 0.20 0.22 0.23 0.24 0.25 0.23 0.24 0.29 0.30 0.29 0.30 0.29 0.32 0.36 0.39 0.39 0.33 0.30 0.30 0.30 0.39 0.39 0.40 0.52 0.58 0.62 0.62 0.58 0.67 0.68 0.82 0.89 0.90 0.84 0.81 0.83 0.81 0.83 0.86 0.88 0.90 0.87 0.88 0.88 0.93 0.95 0.97
0.47 0.50 0.52 0.51 0.51 0.48 0.46 0.42 0.40 0.50 0.58 0.53 0.48 0.45 0.56 0.56 0.52 0.63 0.52 0.37 0.30 0.30 0.35 0.46 0.40 0.40 0.39 0.41 0.45 0.42 0.34 0.33 0.27 0.21 0.28 0.21 0.25 0.27 0.23 0.18 0.19 0.21 0.21 0.21 0.25 0.26 0.23 0.28 0.31 0.32 0.28 0.28 0.27 0.28 0.31 0.33 0.31 0.34 0.32 0.30 0.32 0.37 0.41 0.42 0.50 0.60 0.69 0.68 0.66 0.69 0.65 0.72 0.84 0.85 0.86 0.89 0.91 0.88 0.85 0.87 0.85 0.92 0.89 0.93 0.93 0.98 1.00 0.99
0.46 0.46 0.50 0.50 0.48 0.50 0.42 0.40 0.37 0.49 0.45 0.45 0.40 0.41 0.54 0.60 0.67 0.69 0.50 0.38 0.35 0.27 0.31 0.37 0.46 0.38 0.40 0.49 0.51 0.37 0.31 0.34 0.29 0.28 0.27 0.21 0.22 0.24 0.23 0.22 0.21 0.20 0.23 0.23 0.25 0.28 0.28 0.31 0.33 0.33 0.30 0.28 0.28 0.28 0.28 0.31 0.28 0.29 0.31 0.32 0.33 0.36 0.36 0.46 0.55 0.56 0.54 0.52 0.60 0.66 0.53 0.57 0.68 0.76 0.85 0.95 0.92 0.88 0.90 0.87 0.85 0.89 0.88 0.93 0.90 0.96 1.03 1.08
0.46 0.46 0.47 0.48 0.48 0.47 0.42 0.31 0.47 0.46 0.42 0.37 0.42 0.48 0.63 0.68 0.69 0.67 0.52 0.35 0.19 0.20 0.40 0.24 0.41 0.30 0.41 0.36 0.42 0.39 0.37 0.26 0.31 0.32 0.29 0.23 0.25 0.25 0.26 0.21 0.21 0.20 0.25 0.24 0.24 0.27 0.30 0.33 0.33 0.32 0.32 0.28 0.28 0.28 0.28 0.28 0.26 0.26 0.27 0.30 0.32 0.31 0.31 0.34 0.33 0.37 0.41 0.42 0.55 0.54 0.43 0.56 0.69 0.67 0.75 0.92 1.03 0.92 0.95 0.90 0.88 0.89 0.92 0.94 0.92 0.95 0.98 1.03
0.45 0.44 0.45 0.46 0.46 0.48 0.32 0.24 0.35 0.34 0.31 0.31 0.34 0.46 0.52 0.56 0.62 0.58 0.43 0.34 0.21 0.26 0.29 0.36 0.28 0.36 0.34 0.37 0.36 0.38 0.22 0.21 0.33 0.34 0.32 0.30 0.24 0.29 0.24 0.22 0.23 0.26 0.26 0.27 0.23 0.24 0.30 0.31 0.30 0.28 0.30 0.31 0.28 0.26 0.28 0.28 0.26 0.26 0.32 0.31 0.30 0.29 0.29 0.33 0.35 0.41 0.48 0.55 0.50 0.49 0.48 0.50 0.54 0.67 0.76 0.87 1.08 1.06 0.98 0.91 0.89 0.92 0.95 0.98 0.98 1.01 1.01 1.04
0.44 0.44 0.44 0.45 0.44 0.45 0.37 0.39 0.34 0.28 0.30 0.34 0.35 0.39 0.50 0.55 0.58 0.59 0.43 0.19 0.18 0.34 0.31 0.30 0.32 0.43 0.35 0.40 0.41 0.30 0.26 0.29 0.25 0.29 0.35 0.32 0.27 0.25 0.23 0.22 0.20 0.23 0.25 0.25 0.19 0.25 0.29 0.30 0.29 0.24 0.26 0.31 0.29 0.27 0.30 0.30 0.25 0.29 0.34 0.36 0.31 0.31 0.30 0.23 0.26 0.39 0.41 0.37 0.36 0.43 0.52 0.44 0.48 0.68 0.79 0.89 0.84 0.85 0.95 0.94 0.91 0.91 0.95 0.99 0.99 1.03 1.09 1.10
0.44 0.43 0.43 0.45 0.43 0.38 0.47 0.43 0.38 0.30 0.30 0.38 0.46 0.48 0.50 0.56 0.51 0.41 0.37 0.20 0.41 0.35 0.49 0.33 0.41 0.35 0.37 0.43 0.40 0.33 0.25 0.27 0.23 0.28 0.34 0.33 0.28 0.28 0.22 0.25 0.24 0.25 0.28 0.26 0.24 0.26 0.27 0.30 0.28 0.24 0.26 0.28 0.31 0.30 0.32 0.29 0.25 0.30 0.34 0.41 0.36 0.33 0.30 0.29 0.28 0.28 0.31 0.33 0.31 0.40 0.49 0.43 0.49 0.62 0.74 0.88 0.83 0.79 0.84 0.92 0.93 0.88 0.89 0.95 0.97 1.02 1.06 1.08
0.44 0.42 0.43 0.45 0.42 0.37 0.53 0.49 0.36 0.36 0.42 0.47 0.51 0.52 0.52 0.53 0.44 0.27 0.29 0.17 0.42 0.30 0.36 0.37 0.31 0.29 0.36 0.35 0.35 0.32 0.23 0.26 0.27 0.31 0.32 0.28 0.27 0.33 0.31 0.33 0.28 0.24 0.25 0.28 0.26 0.28 0.27 0.26 0.25 0.25 0.25 0.28 0.30 0.30 0.30 0.30 0.27 0.32 0.37 0.36 0.31 0.28 0.30 0.31 0.31 0.30 0.33 0.33 0.35 0.41 0.46 0.48 0.43 0.55 0.62 0.69 0.70 0.76 0.86 0.94 0.94 0.95 0.97 1.02 0.99 0.92 0.96 1.02
0.44 0.41 0.42 0.48 0.38 0.39 0.36 0.28 0.32 0.47 0.54 0.60 0.54 0.48 0.49 0.45 0.31 0.27 0.23 0.32 0.28 0.33 0.37 0.33 0.30 0.33 0.30 0.29 0.26 0.27 0.26 0.28 0.27 0.29 0.29 0.28 0.26 0.28 0.31 0.27 0.30 0.25 0.24 0.27 0.25 0.27 0.24 0.21 0.26 0.27 0.28 0.30 0.31 0.28 0.30 0.29 0.30 0.32 0.34 0.35 0.32 0.32 0.34 0.31 0.31 0.33 0.30 0.31 0.39 0.46 0.45 0.44 0.38 0.49 0.59 0.75 0.72 0.77 0.85 0.89 0.94 0.98 1.02 1.03 1.01 0.92 0.92 0.95
0.43 0.41 0.42 0.44 0.43 0.45 0.31 0.24 0.31 0.39 0.47 0.48 0.41 0.40 0.41 0.28 0.34 0.25 0.30 0.41 0.19 0.28 0.27 0.30 0.31 0.30 0.29 0.31 0.26 0.21 0.24 0.27 0.29 0.28 0.27 0.23 0.22 0.21 0.25 0.22 0.22 0.19 0.18 0.21 0.20 0.23 0.21 0.20 0.28 0.30 0.32 0.30 0.26 0.26 0.28 0.30 0.31 0.32 0.37 0.34 0.30 0.32 0.29 0.28 0.32 0.31 0.31 0.29 0.36 0.41 0.41 0.39 0.38 0.47 0.56 0.55 0.75 0.74 0.79 0.81 0.85 0.90 0.91 0.88 0.88 0.93 0.91 0.93
0.42 0.41 0.41 0.40 0.43 0.39 0.35 0.30 0.29 0.31 0.31 0.34 0.33 0.38 0.31 0.25 0.22 0.29 0.31 0.36 0.24 0.27 0.29 0.29 0.29 0.28 0.29 0.29 0.24 0.21 0.26 0.24 0.28 0.28 0.28 0.25 0.21 0.21 0.24 0.24 0.24 0.20 0.17 0.20 0.20 0.18 0.20 0.24 0.32 0.31 0.29 0.29 0.29 0.26 0.27 0.27 0.28 0.29 0.32 0.32 0.30 0.27 0.26 0.25 0.30 0.32 0.32 0.35 0.40 0.32 0.36 0.33 0.43 0.47 0.55 0.51 0.60 0.71 0.72 0.77 0.80 0.82 0.83 0.82 0.87 0.92 0.94 0.98
0.42 0.40 0.37 0.37 0.44 0.40 0.36 0.40 0.38 0.36 0.37 0.39 0.33 0.32 0.29 0.22 0.21 0.42 0.31 0.31 0.32 0.30 0.31 0.29 0.30 0.29 0.28 0.26 0.25 0.22 0.22 0.28 0.27 0.27 0.28 0.24 0.20 0.19 0.20 0.25 0.26 0.22 0.21 0.21 0.18 0.17 0.18 0.24 0.29 0.29 0.23 0.29 0.29 0.29 0.31 0.31 0.30 0.30 0.34 0.33 0.32 0.30 0.31 0.27 0.28 0.27 0.30 0.32 0.34 0.42 0.35 0.33 0.31 0.40 0.44 0.44 0.61 0.66 0.67 0.70 0.74 0.82 0.86 0.85 0.88 0.92 0.96 1.00
0.42 0.38 0.39 0.43 0.46 0.44 0.42 0.42 0.43 0.43 0.38 0.35 0.29 0.27 0.21 0.20 0.24 0.33 0.33 0.33 0.36 0.35 0.28 0.30 0.28 0.28 0.26 0.26 0.27 0.25 0.24 0.25 0.28 0.27 0.27 0.23 0.17 0.19 0.19 0.21 0.25 0.23 0.21 0.17 0.18 0.21 0.22 0.27 0.31 0.32 0.29 0.32 0.33 0.34 0.36 0.35 0.33 0.33 0.32 0.34 0.30 0.28 0.38 0.33 0.37 0.34 0.32 0.32 0.32 0.35 0.33 0.41 0.37 0.55 0.51 0.53 0.60 0.65 0.67 0.68 0.67 0.65 0.62 0.69 0.72 0.87 0.99 1.01
0.43 0.37 0.40 0.37 0.43 0.46 0.51 0.48 0.44 0.45 0.39 0.31 0.26 0.23 0.20 0.23 0.21 0.29 0.37 0.39 0.38 0.35 0.33 0.34 0.28 0.26 0.25 0.24 0.26 0.25 0.26 0.27 0.27 0.25 0.25 0.22 0.20 0.17 0.23 0.22 0.21 0.20 0.20 0.18 0.21 0.23 0.26 0.25 0.31 0.32 0.33 0.32 0.33 0.36 0.35 0.35 0.26 0.30 0.29 0.26 0.31 0.36 0.39 0.33 0.31 0.34 0.34 0.32 0.29 0.39 0.36 0.36 0.41 0.41 0.45 0.48 0.53 0.53 0.52 0.57 0.59 0.58 0.53 0.58 0.66 0.74 0.91 1.03
0.40 0.40 0.33 0.36 0.39 0.46 0.57 0.54 0.46 0.41 0.38 0.30 0.24 0.21 0.24 0.25 0.26 0.32 0.40 0.33 0.37 0.39 0.38 0.27 0.26 0.23 0.24 0.23 0.23 0.24 0.26 0.25 0.29 0.28 0.24 0.23 0.19 0.19 0.21 0.21 0.20 0.20 0.24 0.25 0.25 0.29 0.25 0.24 0.30 0.29 0.27 0.32 0.34 0.34 0.35 0.33 0.34 0.33 0.27 0.28 0.34 0.37 0.33 0.31 0.28 0.31 0.31 0.28 0.29 0.34 0.33 0.34 0.41 0.36 0.52 0.54 0.52 0.57 0.55 0.54 0.52 0.57 0.57 0.48 0.55 0.75 0.74 0.95
0.43 0.43 0.41 0.37 0.33 0.43 0.62 0.57 0.46 0.40 0.34 0.27 0.23 0.23 0.28 0.24 0.28 0.31 0.42 0.44 0.40 0.38 0.35 0.32 0.31 0.29 0.23 0.23 0.22 0.23 0.26 0.22 0.26 0.28 0.26 0.25 0.18 0.22 0.20 0.20 0.20 0.21 0.27 0.31 0.29 0.29 0.27 0.24 0.29 0.32 0.31 0.33 0.33 0.31 0.31 0.33 0.36 0.32 0.31 0.33 0.25 0.25 0.24 0.27 0.27 0.25 0.27 0.29 0.29 0.31 0.34 0.33 0.35 0.39 0.48 0.52 0.52 0.56 0.60 0.61 0.54 0.57 0.60 0.55 0.56 0.67 0.81 0.89
0.46 0.52 0.38 0.50 0.51 0.44 0.57 0.55 0.43 0.36 0.27 0.23 0.23 0.23 0.26 0.28 0.30 0.33 0.42 0.45 0.43 0.39 0.34 0.37 0.32 0.30 0.26 0.23 0.24 0.24 0.26 0.21 0.24 0.25 0.23 0.24 0.18 0.20 0.19 0.20 0.18 0.21 0.29 0.33 0.31 0.34 0.31 0.25 0.29 0.34 0.33 0.35 0.34 0.30 0.24 0.27 0.32 0.34 0.35 0.31 0.32 0.28 0.26 0.26 0.28 0.31 0.31 0.30 0.31 0.33 0.39 0.37 0.42 0.45 0.47 0.51 0.53 0.53 0.56 0.59 0.55 0.46 0.49 0.58 0.62 0.74 0.74 0.81
0.41 0.39 0.35 0.59 0.51 0.55 0.57 0.47 0.40 0.34 0.25 0.21 0.24 0.25 0.31 0.27 0.26 0.33 0.43 0.47 0.47 0.40 0.41 0.43 0.39 0.35 0.28 0.25 0.25 0.24 0.25 0.25 0.23 0.25 0.23 0.25 0.20 0.23 0.21 0.22 0.21 0.20 0.29 0.34 0.32 0.34 0.30 0.31 0.27 0.33 0.38 0.35 0.28 0.30 0.27 0.29 0.27 0.27 0.28 0.27 0.28 0.28 0.33 0.33 0.34 0.30 0.28 0.28 0.29 0.30 0.29 0.38 0.42 0.45 0.53 0.55 0.52 0.51 0.49 0.49 0.51 0.49 0.45 0.52 0.62 0.63 0.70 0.84
0.35 0.37 0.37 0.67 0.66 0.67 0.59 0.43 0.34 0.29 0.24 0.25 0.27 0.28 0.32 0.29 0.29 0.32 0.43 0.48 0.46 0.46 0.45 0.43 0.43 0.40 0.39 0.25 0.22 0.26 0.27 0.26 0.24 0.22 0.25 0.26 0.24 0.23 0.26 0.26 0.25 0.24 0.26 0.30 0.30 0.33 0.31 0.32 0.28 0.33 0.33 0.31 0.30 0.34 0.34 0.33 0.31 0.28 0.28 0.27 0.29 0.29 0.29 0.25 0.27 0.38 0.34 0.30 0.30 0.31 0.29 0.38 0.46 0.52 0.54 0.53 0.51 0.50 0.48 0.48 0.55 0.55 0.54 0.38 0.56 0.68 0.66 0.65
0.37 0.31 0.39 0.71 0.74 0.63 0.48 0.35 0.32 0.32 0.27 0.24 0.24 0.28 0.29 0.34 0.32 0.34 0.39 0.48 0.44 0.43 0.47 0.47 0.47 0.45 0.45 0.42 0.28 0.24 0.25 0.27 0.26 0.23 0.25 0.25 0.28 0.27 0.31 0.31 0.29 0.30 0.27 0.26 0.30 0.34 0.33 0.34 0.31 0.32 0.33 0.34 0.33 0.35 0.37 0.36 0.33 0.32 0.31 0.30 0.32 0.33 0.30 0.27 0.24 0.31 0.35 0.35 0.37 0.34 0.29 0.35 0.50 0.51 0.50 0.49 0.49 0.48 0.53 0.54 0.51 0.50 0.50 0.52 0.53 0.51 0.59 0.67
0.40 0.36 0.74 0.79 0.82 0.65 0.48 0.31 0.33 0.30 0.26 0.28 0.31 0.31 0.32 0.31 0.32 0.35 0.37 0.43 0.42 0.43 0.40 0.39 0.43 0.44 0.47 0.45 0.41 0.35 0.25 0.25 0.27 0.25 0.25 0.25 0.28 0.30 0.36 0.34 0.34 0.31 0.30 0.29 0.33 0.35 0.33 0.31 0.30 0.32 0.38 0.40 0.39 0.39 0.39 0.39 0.35 0.31 0.31 0.31 0.31 0.28 0.30 0.30 0.31 0.32 0.31 0.37 0.33 0.30 0.27 0.35 0.48 0.54 0.52 0.52 0.53 0.52 0.50 0.50 0.52 0.50 0.54 0.56 0.53 0.49 0.59 0.69
0.31 0.36 0.49 0.60 0.71 0.61 0.45 0.31 0.27 0.29 0.29 0.30 0.30 0.29 0.32 0.30 0.29 0.31 0.35 0.40 0.41 0.44 0.40 0.39 0.38 0.41 0.42 0.47 0.42 0.36 0.32 0.23 0.27 0.28 0.26 0.25 0.26 0.34 0.36 0.36 0.36 0.33 0.31 0.30 0.30 0.34 0.29 0.33 0.31 0.30 0.33 0.34 0.34 0.36 0.38 0.39 0.36 0.31 0.30 0.32 0.32 0.31 0.31 0.32 0.32 0.34 0.31 0.33 0.34 0.31 0.28 0.34 0.50 0.54 0.58 0.59 0.57 0.50 0.50 0.58 0.57 0.51 0.56 0.53 0.51 0.54 0.53 0.66
0.36 0.39 0.32 0.39 0.59 0.56 0.41 0.38 0.36 0.34 0.33 0.30 0.29 0.28 0.28 0.27 0.29 0.31 0.34 0.39 0.46 0.46 0.42 0.35 0.35 0.39 0.39 0.43 0.41 0.41 0.42 0.33 0.31 0.29 0.29 0.27 0.24 0.32 0.34 0.34 0.38 0.33 0.34 0.37 0.35 0.38 0.31 0.34 0.31 0.27 0.26 0.27 0.27 0.28 0.30 0.32 0.31 0.33 0.30 0.30 0.32 0.32 0.33 0.31 0.28 0.31 0.28 0.33 0.34 0.32 0.33 0.45 0.58 0.60 0.56 0.57 0.57 0.57 0.53 0.58 0.53 0.61 0.61 0.56 0.53 0.61 0.64 0.63
0.35 0.32 0.51 0.41 0.39 0.48 0.43 0.43 0.39 0.38 0.41 0.41 0.35 0.32 0.30 0.26 0.29 0.30 0.38 0.42 0.48 0.48 0.44 0.41 0.35 0.32 0.33 0.38 0.38 0.37 0.38 0.39 0.36 0.35 0.29 0.26 0.25 0.28 0.34 0.36 0.38 0.34 0.34 0.47 0.40 0.35 0.31 0.31 0.33 0.30 0.30 0.29 0.33 0.35 0.36 0.35 0.35 0.29 0.29 0.28 0.30 0.33 0.34 0.33 0.35 0.34 0.31 0.34 0.33 0.36 0.37 0.45 0.48 0.54 0.54 0.55 0.57 0.56 0.58 0.61 0.55 0.54 0.57 0.62 0.60 0.57 0.68 0.67
0.45 0.37 0.57 0.61 0.59 0.43 0.40 0.39 0.30 0.32 0.35 0.46 0.42 0.46 0.38 0.30 0.29 0.32 0.41 0.38 0.43 0.47 0.45 0.42 0.38 0.30 0.28 0.33 0.34 0.35 0.39 0.39 0.40 0.40 0.33 0.27 0.26 0.29 0.33 0.36 0.37 0.39 0.50 0.43 0.41 0.36 0.32 0.29 0.29 0.31 0.29 0.32 0.36 0.41 0.40 0.38 0.31 0.30 0.30 0.32 0.32 0.34 0.35 0.33 0.30 0.29 0.37 0.38 0.33 0.40 0.41 0.40 0.49 0.48 0.49 0.50 0.54 0.58 0.59 0.59 0.60 0.58 0.52 0.48 0.54 0.64 0.61 0.68
0.40 0.50 0.62 0.66 0.57 0.52 0.36 0.33 0.33 0.29 0.30 0.38 0.45 0.54 0.49 0.44 0.36 0.32 0.40 0.42 0.42 0.45 0.41 0.42 0.39 0.35 0.32 0.30 0.32 0.35 0.39 0.38 0.40 0.37 0.35 0.31 0.29 0.27 0.27 0.32 0.34 0.47 0.42 0.40 0.42 0.36 0.34 0.31 0.34 0.32 0.32 0.29 0.31 0.33 0.39 0.41 0.41 0.40 0.39 0.36 0.33 0.33 0.32 0.31 0.33 0.34 0.35 0.34 0.32 0.45 0.46 0.40 0.42 0.49 0.54 0.53 0.55 0.54 0.57 0.60 0.62 0.63 0.60 0.61 0.61 0.56 0.57 0.61
0.44 0.43 0.54 0.65 0.52 0.57 0.57 0.58 0.56 0.54 0.48 0.38 0.39 0.49 0.49 0.49 0.48 0.42 0.37 0.40 0.37 0.36 0.40 0.38 0.35 0.36 0.35 0.34 0.34 0.32 0.45 0.46 0.48 0.47 0.45 0.46 0.37 0.34 0.31 0.32 0.34 0.46 0.36 0.38 0.37 0.36 0.34 0.31 0.32 0.29 0.28 0.31 0.31 0.32 0.36 0.36 0.36 0.37 0.37 0.38 0.36 0.33 0.30 0.30 0.30 0.31 0.31 0.33 0.34 0.44 0.40 0.40 0.43 0.46 0.51 0.54 0.56 0.55 0.55 0.58 0.63 0.60 0.56 0.54 0.51 0.49 0.49 0.53
0.37 0.33 0.39 0.53 0.53 0.51 0.54 0.56 0.57 0.52 0.41 0.49 0.45 0.47 0.52 0.57 0.55 0.53 0.43 0.36 0.36 0.36 0.39 0.35 0.37 0.40 0.40 0.36 0.35 0.34 0.41 0.48 0.54 0.52 0.61 0.50 0.46 0.45 0.36 0.36 0.32 0.33 0.36 0.34 0.35 0.38 0.33 0.31 0.34 0.36 0.33 0.34 0.35 0.32 0.31 0.33 0.33 0.34 0.38 0.40 0.41 0.38 0.35 0.34 0.33 0.32 0.32 0.32 0.32 0.33 0.41 0.37 0.45 0.48 0.48 0.53 0.61 0.59 0.58 0.58 0.62 0.65 0.61 0.56 0.55 0.55 0.53 0.51
0.40 0.41 0.40 0.38 0.39 0.43 0.52 0.57 0.52 0.50 0.51 0.52 0.51 0.54 0.54 0.55 0.56 0.56 0.53 0.45 0.38 0.43 0.40 0.35 0.38 0.39 0.41 0.37 0.43 0.38 0.57 0.62 0.64 0.64 0.64 0.57 0.51 0.45 0.44 0.42 0.40 0.34 0.34 0.33 0.33 0.34 0.31 0.30 0.34 0.32 0.29 0.29 0.31 0.31 0.32 0.29 0.28 0.27 0.30 0.34 0.31 0.32 0.32 0.33 0.34 0.36 0.35 0.33 0.34 0.37 0.37 0.38 0.45 0.53 0.55 0.56 0.59 0.58 0.60 0.64 0.64 0.63 0.61 0.59 0.58 0.58 0.52 0.51
0.43 0.40 0.40 0.41 0.36 0.34 0.39 0.49 0.53 0.49 0.45 0.50 0.49 0.51 0.49 0.51 0.53 0.56 0.54 0.60 0.50 0.46 0.55 0.50 0.44 0.43 0.46 0.51 0.56 0.62 0.63 0.66 0.66 0.65 0.69 0.64 0.63 0.55 0.50 0.63 0.49 0.45 0.39 0.36 0.38 0.30 0.33 0.30 0.28 0.26 0.25 0.25 0.31 0.32 0.34 0.34 0.32 0.29 0.30 0.30 0.29 0.33 0.35 0.37 0.38 0.39 0.39 0.39 0.39 0.37 0.38 0.43 0.50 0.57 0.57 0.56 0.57 0.64 0.66 0.65 0.61 0.61 0.66 0.64 0.61 0.59 0.58 0.57
Wind_Speed
15 15 15 15 14 14 14 14 14 14 14 14 14 14 14 14 15 14 14 15 15 14 14 14 13 12 11 11 10 9 9 8 8 9 10 10 9 9 9 9 10 10 10 9 8 8 7 6 4 4 4 4 5 4 3 4 3 2 1 1 3 4 4 3 4 6 7 8 8 8 7 7 8 8 8 8 8 8 8 7 7 8 9 10 12 13 13 12
16 16 16 16 16 15 15 15 15 15 15 15 15 15 15 15 15 15 15 15 15 15 14 13 12 11 10 10 9 8 8 8 9 10 12 11 10 10 10 11 11 10 11 10 9 9 8 6 4 4 5 5 6 6 5 5 5 4 1 1 5 6 5 5 6 7 7 8 8 7 7 7 8 8 8 7 7 7 8 8 9 11 12 12 12 12 12 12
17 16 17 17 17 16 16 15 15 15 15 16 16 16 16 15 15 15 15 15 15 15 14 12 11 10 9 8 8 7 7 7 9 10 11 12 11 11 11 12 12 11 12 11 10 10 8 7 4 4 6 6 6 6 5 4 4 2 2 2 5 6 6 6 7 7 7 8 8 8 7 7 7 6 6 6 7 8 8 9 10 11 12 11 11 11 12 12
18 17 17 17 17 17 17 16 16 16 16 16 16 16 16 16 16 16 15 15 15 14 13 11 9 9 8 7 7 6 7 7 7 7 8 11 12 12 12 13 12 12 12 11 11 9 7 7 4 5 8 7 6 5 5 5 2 1 4 4 5 5 6 7 7 8 8 8 8 7 8 7 5 5 5 6 7 7 7 9 9 10 11 11 11 11 11 11
18 18 18 18 18 18 18 17 17 17 17 17 17 17 17 17 16 16 15 15 14 13 12 10 9 8 7 7 6 6 5 4 3 4 5 9 11 12 13 14 13 13 13 12 11 9 8 7 5 6 7 7 6 4 6 5 1 1 4 5 6 5 6 8 8 9 8 8 7 7 7 7 5 5 5 6 6 5 6 9 9 9 10 11 11 11 10 10
19 19 19 19 19 18 18 18 18 18 17 17 17 17 17 17 17 16 15 15 13 12 11 9 8 7 7 6 6 6 6 3 1 2 4 8 10 12 14 14 14 14 14 12 11 10 9 8 7 7 6 6 6 5 7 4 1 2 4 4 5 6 7 8 8 8 8 8 7 7 7 7 7 6 5 6 6 5 7 9 10 10 10 11 11 10 10 9
19 19 19 20 20 19 19 19 19 18 18 18 18 18 18 17 17 16 15 14 13 12 11 10 9 8 7 7 6 6 8 7 5 2 5 8 10 12 14 15 15 14 15 13 12 11 10 10 8 8 6 5 6 7 8 4 1 2 4 4 5 6 7 7 8 8 8 8 8 7 6 7 8 6 5 6 6 7 9 10 11 10 10 11 10 10 9 9
20 20 20 20 20 20 20 20 19 19 19 19 19 18 18 18 17 17 16 15 13 12 11 10 10 9 8 7 7 7 9 11 7 4 5 8 10 13 14 15 16 16 15 14 13 12 10 10 9 8 6 4 7 8 7 4 2 4 4 5 5 6 8 8 9 9 8 8 8 8 7 7 8 8 7 7 7 8 9 9 10 10 10 10 10 9 9 8
20 20 20 20 20 20 20 20 20 20 20 19 19 19 18 18 17 17 16 15 13 12 11 11 11 10 9 8 8 8 8 8 8 6 6 8 11 14 15 16 17 17 16 15 14 12 10 10 10 9 5 2 6 7 6 7 4 4 5 5 6 7 8 9 9 9 9 8 8 8 8 9 9 8 8 7 7 8 9 9 10 10 10 10 9 8 8 7
20 21 21 21 21 21 21 21 21 21 20 20 20 19 19 18 17 17 16 15 14 13 12 11 11 10 10 9 9 8 5 6 8 7 7 9 12 14 15 16 17 18 16 15 15 13 11 10 9 8 5 3 7 8 6 7 5 5 6 6 7 8 8 9 10 9 8 8 8 9 9 10 9 7 7 8 7 8 9 9 9 9 9 9 8 8 8 7
21 21 21 21 21 21 21 21 21 21 21 21 20 20 19 19 18 17 16 15 14 13 13 12 11 11 11 11 11 9 7 7 8 8 8 10 13 15 15 17 18 18 17 15 15 14 12 11 9 7 5 4 8 9 5 5 7 7 7 8 8 8 9 10 9 8 8 9 9 9 10 9 8 7 7 8 8 8 9 9 9 9 9 8 7 7 7 7
21 21 21 22 22 22 22 21 21 21 22 21 21 20 20 19 19 18 17 15 15 14 13 12 11 11 12 12 14 13 8 7 9 8 8 10 13 15 15 17 18 18 18 16 14 14 12 10 10 9 6 5 9 8 5 6 8 9 9 8 9 9 9 10 8 8 8 8 9 10 9 8 7 7 8 8 8 8 8 8 8 8 8 7 7 6 6 6
21 21 21 22 22 22 22 22 22 22 22 22 21 21 21 20 19 18 17 16 15 15 14 13 11 12 12 12 15 16 11 9 10 10 10 11 12 14 15 17 18 18 18 16 13 13 12 10 11 11 9 9 8 6 5 7 8 9 10 9 9 9 9 9 7 8 8 7 9 7 5 5 6 7 8 8 8 8 8 8 7 7 7 7 6 6 6 6
21 21 22 22 22 23 23 22 22 22 22 22 22 22 22 21 20 18 17 17 16 15 15 13 12 12 12 13 14 16 15 12 11 12 12 12 13 14 16 17 18 19 18 15 12 12 12 11 10 10 12 12 8 6 6 8 9 9 10 9 9 8 8 9 8 8 7 6 7 4 2 5 6 7 8 7 7 7 7 8 7 7 7 6 6 6 6 6
22 22 22 22 22 23 23 23 23 23 22 22 22 22 22 22 20 19 18 17 17 16 16 14 13 12 13 15 15 14 15 14 12 14 14 14 15 15 17 18 18 19 18 15 13 12 12 12 10 10 13 12 10 9 9 10 10 10 10 9 9 8 8 9 8 8 7 5 5 3 3 5 5 7 8 7 7 7 6 7 7 7 7 6 6 6 6 6
22 22 22 22 22 23 23 23 23 23 23 22 22 22 22 21 20 19 18 17 17 17 16 15 14 14 13 12 13 15 16 16 15 15 16 16 15 15 17 18 18 18 17 15 13 12 13 13 11 12 12 11 10 11 13 12 10 10 11 9 9 9 9 9 7 8 7 5 5 3 3 5 5 7 8 8 8 7 6 7 7 7 8 7 6 6 6 6
23 23 23 23 23 23 23 24 24 23 23 23 22 22 21 21 21 20 19 18 18 17 17 16 14 14 15 13 13 16 17 17 17 17 17 17 16 15 17 18 18 18 17 16 13 12 15 14 12 12 12 10 10 12 14 13 11 12 11 9 10 10 9 9 8 9 8 5 5 5 4 6 6 7 8 8 9 7 6 6 7 7 7 7 6 6 6 5
24 24 24 24 23 23 23 24 24 24 23 23 23 22 21 20 20 19 19 17 17 17 17 17 15 14 15 17 18 17 17 18 19 18 18 18 17 16 17 18 18 18 17 16 15 14 15 15 13 12 12 12 13 14 14 14 13 12 12 10 10 11 10 9 9 9 8 7 6 5 5 7 7 7 7 8 9 8 6 6 6 6 7 7 7 6 6 5
25 25 25 24 24 24 24 24 24 24 24 23 22 21 19 18 18 18 19 18 17 18 18 17 18 16 13 15 18 17 17 18 19 19 19 19 18 18 18 18 18 19 18 16 16 17 16 15 14 14 13 14 15 16 15 14 13 12 13 12 11 12 12 11 9 9 9 9 8 6 7 8 7 7 8 8 9 8 7 7 6 6 6 6 7 7 6 5
26 26 25 25 25 24 24 24 24 23 23 22 21 19 18 16 16 17 18 20 21 21 21 19 20 20 16 14 16 17 18 19 19 20 20 19 19 19 19 19 18 19 18 16 16 18 17 15 15 15 14 15 17 17 17 15 13 13 13 13 13 13 13 13 11 10 10 9 9 8 9 9 8 8 8 8 9 8 8 8 7 7 7 6 6 6 6 5
26 26 26 26 25 25 24 24 23 23 22 22 20 19 18 16 15 16 18 21 23 24 25 24 22 22 20 16 16 19 20 19 20 21 21 21 20 20 20 20 19 18 19 18 16 17 17 16 16 16 15 15 17 17 17 17 15 14 12 12 14 13 13 14 13 12 11 10 9 9 10 10 9 9 9 9 10 9 9 9 9 9 8 7 7 7 7 5
26 26 26 26 25 25 25 24 23 23 21 21 20 20 20 18 17 18 19 22 24 24 25 26 25 25 22 18 17 20 20 20 22 22 22 22 21 20 20 21 19 18 19 19 17 17 18 18 18 17 16 15 16 17 17 17 17 15 12 12 13 13 12 12 13 13 11 9 8 10 10 10 10 10 10 11 10 9 10 10 9 10 9 8 9 8 7 7
26 26 26 26 26 26 25 24 24 22 20 19 20 21 21 20 19 19 20 22 23 24 25 26 27 26 24 21 19 21 22 21 23 24 24 24 22 21 21 21 19 18 19 20 19 18 18 18 18 18 17 16 17 17 17 17 15 14 13 12 12 13 12 11 12 13 12 9 8 10 10 9 9 10 11 12 12 11 10 11 11 11 10 10 10 9 9 8
27 26 26 26 26 25 25 25 22 19 18 18 20 21 21 21 19 19 19 21 23 25 26 27 27 27 26 24 22 22 23 23 23 25 25 25 23 22 21 21 20 19 19 21 21 19 18 18 19 18 17 18 17 17 17 16 13 14 15 13 11 13 13 12 13 13 12 11 9 10 10 9 9 10 11 12 13 13 12 12 12 12 12 11 11 11 10 9
27 26 26 26 25 25 25 23 18 16 17 19 19 19 19 19 18 18 18 20 21 23 25 27 27 27 27 26 24 23 23 24 25 25 26 26 25 22 20 20 20 19 20 22 21 20 19 18 19 19 18 19 18 17 18 16 13 13 16 16 13 13 12 13 15 14 12 12 12 13 11 11 12 12 11 12 14 14 14 13 13 13 12 13 12 12 11 11
27 26 26 25 25 25 24 20 17 17 18 18 17 15 16 17 17 18 18 18 20 21 23 25 25 26 27 27 26 24 23 24 26 25 26 27 26 23 20 20 20 20 20 21 19 18 18 19 20 20 19 20 19 16 16 17 14 12 15 17 16 14 12 13 15 15 12 12 13 15 14 11 12 15 14 13 14 15 15 15 14 14 14 14 14 13 13 12
27 26 26 25 24 23 21 19 19 19 19 18 16 15 16 16 16 17 17 17 18 19 21 22 22 24 26 27 27 25 23 24 26 27 27 28 28 25 21 20 20 20 20 19 19 18 18 20 20 21 21 20 20 17 16 17 15 13 13 15 16 16 15 14 13 13 12 13 14 15 15 12 12 15 15 15 15 15 16 16 15 15 15 15 15 15 14 14
27 27 26 25 24 23 21 21 21 20 20 19 18 17 16 16 16 17 17 16 15 16 20 21 20 21 24 27 29 26 23 23 25 28 28 28 28 26 23 22 21 21 21 20 19 18 19 20 20 21 22 20 19 18 17 17 17 14 10 10 16 18 15 12 12 11 11 13 14 14 14 13 12 12 14 16 16 16 17 18 16 16 17 17 16 16 16 15
28 27 26 25 25 23 22 21 21 20 20 19 18 18 17 16 16 16 17 18 15 16 19 20 20 21 23 26 28 27 25 24 24 26 28 29 29 27 23 22 23 22 22 22 20 18 19 20 19 21 22 19 18 18 19 19 18 15 12 11 16 17 14 12 13 12 12 12 13 13 13 13 13 12 13 15 16 18 19 17 16 18 18 18 18 17 17 16
27 27 26 25 24 22 20 21 21 20 19 19 18 17 17 17 15 16 18 19 17 17 18 19 20 22 25 25 25 27 27 25 24 26 29 28 30 29 24 22 23 22 22 22 21 20 20 20 18 19 21 19 17 19 19 20 19 15 13 13 13 12 11 13 13 13 13 12 13 15 15 14 14 13 14 15 16 17 18 17 17 18 19 19 19 18 18 17
27 27 25 24 23 21 20 21 20 17 17 17 17 17 17 16 16 17 17 17 17 18 18 19 21 24 26 25 24 26 28 26 25 28 28 27 29 30 26 23 23 22 22 22 22 22 21 20 17 17 20 20 18 19 18 19 19 15 13 13 11 10 11 11 13 13 12 12 13 15 16 16 14 13 14 15 16 17 17 17 17 17 18 19 19 19 18 18
27 27 26 25 24 23 22 22 20 17 17 18 17 17 17 17 18 19 17 14 15 18 19 19 22 24 26 26 24 26 28 26 26 28 28 27 28 29 27 24 23 22 23 21 21 21 21 20 19 18 21 22 19 18 18 19 20 16 14 15 14 12 11 10 11 11 12 13 13 14 15 16 15 14 14 14 15 16 16 17 17 17 18 19 20 20 19 19
27 27 26 24 24 23 23 23 21 20 19 18 18 18 18 19 19 20 20 16 14 16 18 19 22 24 26 27 25 26 28 26 26 28 28 28 28 29 29 27 25 23 22 21 21 21 18 18 20 20 20 23 21 18 18 19 19 18 16 15 15 14 11 11 11 11 12 13 14 14 14 13 12 12 13 14 15 15 14 17 18 18 18 18 19 20 20 20
27 26 25 23 23 23 23 22 21 20 19 18 18 19 20 21 20 19 21 20 16 14 16 18 21 24 26 26 26 27 27 26 27 28 27 29 28 29 30 29 27 25 21 21 21 21 19 17 19 21 20 23 22 19 19 19 18 19 17 15 16 15 12 11 10 10 11 11 12 14 12 10 8 8 8 8 11 14 12 12 12 14 17 17 18 20 20 21
27 25 23 22 22 23 23 22 21 20 19 19 19 20 22 21 20 19 20 21 19 15 14 17 20 22 24 25 26 28 27 24 27 29 27 29 29 28 29 29 28 26 23 22 20 21 21 18 19 21 20 22 21 18 18 20 19 19 19 17 16 16 14 13 12 11 11 11 10 10 10 9 8 8 8 6 10 12 11 10 10 12 14 15 16 18 20 20
25 23 22 22 22 21 21 21 21 21 20 20 21 22 22 21 20 19 18 19 20 16 15 19 22 21 22 24 25 28 28 25 26 28 27 28 30 29 29 28 29 29 26 22 19 20 19 18 20 22 22 23 23 20 18 18 18 17 19 20 17 16 16 14 14 14 13 12 11 10 11 11 9 11 11 11 11 11 11 11 12 12 12 12 14 16 18 19
23 22 21 22 22 21 21 20 20 21 21 21 22 22 22 21 22 21 18 18 19 17 17 19 23 23 22 23 24 27 28 26 26 26 26 28 29 30 30 29 30 32 29 23 20 19 17 16 20 24 23 22 23 23 20 18 19 17 17 20 17 16 17 14 12 12 12 12 11 12 13 11 10 9 9 11 11 11 11 11 11 11 12 12 13 15 16 17
22 21 21 22 22 21 21 20 20 21 22 22 23 24 22 21 23 24 21 19 19 19 18 18 21 23 23 22 24 27 28 26 25 25 25 26 28 30 31 29 29 32 31 27 21 19 18 16 18 24 24 21 22 24 22 20 21 19 15 17 17 17 17 15 12 11 11 11 10 11 13 12 11 10 9 11 10 9 9 8 8 9 11 12 12 13 16 16
21 20 20 20 20 20 21 21 20 21 22 22 23 23 22 22 23 25 24 21 20 21 20 19 19 21 23 23 23 26 28 27 25 24 24 24 25 29 31 28 29 32 32 29 23 19 19 16 16 23 24 21 21 23 23 21 22 21 17 16 16 16 15 14 14 13 12 11 10 11 11 9 9 9 10 11 10 9 8 8 8 9 10 12 12 12 14 17
20 19 18 16 17 19 20 20 21 22 22 22 22 21 21 22 23 26 26 23 21 22 22 20 19 18 20 24 24 23 27 28 26 24 23 24 24 26 30 29 28 31 33 31 26 21 19 17 16 20 23 22 22 22 24 22 21 22 21 18 16 16 15 14 14 15 14 12 10 10 10 8 7 9 9 9 9 9 10 10 10 10 11 11 12 12 13 15
19 19 18 17 17 18 19 20 21 22 21 22 22 22 22 21 22 24 27 24 22 23 24 23 21 17 16 20 23 22 23 25 27 25 23 24 25 24 28 30 28 29 31 30 28 23 19 17 17 19 21 23 23 23 23 23 22 21 22 20 17 16 16 14 13 14 14 13 11 11 11 8 7 8 9 9 9 10 11 11 10 10 11 10 10 11 12 13
19 18 17 18 19 19 20 20 20 21 21 22 22 23 22 21 22 24 25 25 23 23 25 25 24 21 18 19 21 21 22 22 25 26 24 25 26 23 26 30 30 28 28 28 28 26 20 16 17 20 21 22 23 23 22 23 22 22 21 20 18 17 16 15 13 13 14 14 14 13 11 9 8 9 9 9 9 8 9 10 10 11 10 9 10 10 11 12
20 19 18 19 20 21 21 20 21 21 21 22 23 24 24 22 22 24 24 24 24 23 25 26 25 24 22 21 20 20 21 21 23 26 25 25 27 25 25 29 31 29 27 27 28 26 22 18 18 19 19 19 22 23 22 23 22 22 23 22 20 18 18 17 16 14 14 15 15 14 11 10 9 9 9 9 8 8 9 10 11 12 10 9 10 10 11 11
20 21 22 21 21 22 22 21 21 21 21 22 23 24 25 24 24 25 25 25 24 23 24 26 26 25 22 22 22 19 18 19 20 24 25 25 25 27 27 29 31 29 27 27 27 25 23 20 19 18 16 17 19 19 21 23 22 21 23 24 24 22 21 20 18 16 16 16 16 14 13 10 10 9 8 9 9 11 11 10 10 10 10 11 11 11 11 11
19 20 21 22 22 23 23 22 21 20 20 22 23 23 24 24 25 26 26 25 25 24 23 24 27 27 24 23 24 22 19 19 18 19 23 25 23 25 28 28 30 31 28 26 26 25 23 21 19 18 18 18 19 18 19 22 22 21 23 25 25 25 24 22 18 17 17 16 16 16 13 10 11 11 10 10 12 12 12 12 12 10 10 11 12 12 12 12
18 17 18 19 22 23 23 23 23 22 20 20 21 22 23 24 24 25 25 25 26 26 23 22 25 28 26 25 25 23 22 22 19 15 19 25 23 22 27 28 28 29 26 24 25 25 23 23 23 21 20 20 18 17 18 19 21 22 23 24 25 24 23 22 19 18 17 16 17 18 16 14 14 14 14 15 15 14 13 14 14 13 12 12 12 13 13 13
18 17 16 15 19 22 22 23 24 23 22 21 19 19 22 23 23 23 24 25 27 28 25 23 24 27 28 28 26 23 22 24 22 16 17 23 23 21 25 28 26 25 24 24 26 25 22 23 26 26 25 25 21 17 16 17 20 21 21 23 25 25 24 23 21 20 17 17 18 18 19 19 17 17 17 17 16 14 13 14 15 15 15 15 15 15 15 15
18 20 19 16 17 20 20 20 22 22 24 24 21 19 20 21 22 22 23 24 27 29 27 24 25 27 28 28 27 25 22 22 22 19 16 20 22 22 24 27 25 23 24 26 27 25 23 23 25 26 26 28 27 24 21 19 19 21 21 22 24 25 26 25 25 24 21 19 18 17 17 19 18 17 17 16 15 15 13 12 12 14 16 17 17 17 18 18
19 21 21 19 19 20 19 19 21 21 22 23 22 22 21 20 21 22 22 22 25 28 29 27 26 26 27 27 27 26 23 20 20 18 17 17 19 22 26 27 25 24 26 27 25 24 25 23 23 25 24 25 28 28 27 24 22 22 23 22 23 24 26 27 26 26 24 23 22 19 19 21 20 18 18 17 16 16 15 15 15 16 18 19 19 19 20 20
18 20 21 21 21 22 21 20 20 20 21 21 21 21 21 20 20 20 22 23 23 25 29 31 27 25 27 27 27 26 24 22 20 17 17 17 17 21 26 27 27 25 26 27 25 24 26 24 22 24 24 24 25 26 27 27 25 24 24 24 24 23 24 25 26 25 25 25 24 21 20 21 21 20 20 19 18 18 19 20 21 21 21 20 20 20 21 21
18 20 21 22 23 23 22 20 19 19 20 20 20 20 21 21 20 18 19 22 24 23 25 29 28 27 26 24 23 23 22 22 21 19 18 18 16 19 21 23 26 27 25 26 25 24 26 26 24 24 24 25 24 24 26 27 27 27 27 27 26 24 23 23 23 23 24 23 22 20 19 18 17 17 18 17 17 18 18 18 19 20 19 19 20 21 21 22
18 19 20 22 23 24 24 22 20 19 19 19 20 21 21 22 21 20 19 19 22 24 24 25 25 25 24 21 21 22 22 22 22 21 21 20 20 21 20 19 23 24 23 25 25 23 24 25 25 25 24 25 26 26 25 25 25 26 26 25 25 24 23 23 22 22 23 23 21 20 20 18 15 15 16 17 17 16 16 16 16 17 19 20 21 22 23 24
Wind_Direction
298 299 299 299 295 293 293 293 293 293 293 294 295 297 298 299 300 302 303 303 303 301 299 297 295 295 293 292 292 289 286 278 268 253 240 233 220 209 206 203 200 197 196 194 193 195 193 191 185 178 167 156 155 142 128 132 135 131 122 34 80 105 91 94 125 127 129 122 121 123 117 115 117 118 124 128 121 123 129 127 129 127 129 130 128 130 133 132
297 297 298 297 295 292 291 291 291 291 291 292 293 295 296 297 299 300 301 301 301 299 298 296 294 293 292 291 289 287 283 272 263 255 242 231 218 208 205 200 198 195 192 192 192 190 188 185 174 172 168 162 156 138 126 126 116 101 110 78 80 89 81 83 116 125 126 125 123 121 117 120 123 125 136 135 123 130 129 123 125 124 129 131 129 132 135 136
296 296 297 297 295 292 290 289 290 290 290 290 291 293 294 296 297 298 299 300 299 298 296 294 292 291 290 287 284 283 280 274 265 255 242 226 213 206 201 198 197 192 192 192 190 188 188 192 194 186 176 172 165 151 141 134 134 88 34 151 101 85 88 97 114 119 122 125 121 120 119 118 119 125 139 136 128 135 134 129 129 129 136 138 137 139 140 142
295 296 296 296 294 292 290 289 288 288 288 289 290 291 292 294 295 296 297 298 297 295 294 290 288 287 286 284 279 278 277 278 262 247 235 215 204 201 197 194 193 191 192 192 194 195 193 198 206 189 180 182 173 159 152 131 134 21 44 107 115 96 100 107 119 122 124 121 114 118 113 106 103 102 121 136 133 135 139 142 143 142 145 144 143 144 145 148
293 294 295 295 294 292 290 288 288 287 287 287 288 289 290 292 293 293 294 296 294 292 290 284 284 281 279 278 272 270 268 271 253 236 222 202 196 194 192 191 189 189 189 190 197 198 195 197 195 182 180 190 181 168 174 152 118 124 78 87 99 104 110 110 116 115 117 116 110 113 105 109 123 108 106 128 135 144 148 149 152 150 149 148 147 147 148 150
291 292 293 294 295 293 290 288 287 286 286 285 286 287 288 290 291 291 292 292 289 286 284 278 278 275 273 270 263 259 240 231 284 239 198 187 189 188 188 187 186 187 186 188 193 191 188 187 185 179 171 183 189 183 179 162 47 167 125 103 98 111 122 117 120 118 117 117 108 105 100 109 120 111 110 123 135 159 151 145 149 149 151 152 149 150 152 149
291 290 291 293 294 293 291 288 287 286 285 285 284 285 286 287 288 288 289 288 284 280 278 273 271 267 266 261 256 246 230 240 265 227 178 177 183 185 185 185 184 185 185 187 190 188 185 184 187 185 183 195 193 178 172 157 91 143 128 134 126 121 129 123 125 124 116 110 102 101 103 108 110 112 125 124 127 139 138 141 146 147 152 153 153 155 152 148
292 291 290 291 292 293 292 289 287 285 285 284 283 283 284 285 285 284 285 284 278 273 272 268 265 260 256 254 249 243 238 240 236 210 185 182 183 183 183 183 183 183 184 188 189 186 186 191 193 187 191 207 189 175 178 186 156 135 121 126 131 128 131 128 126 121 112 108 103 99 96 100 105 111 119 116 118 128 134 141 146 148 152 152 155 158 154 153
293 292 290 290 290 291 291 289 287 286 285 283 282 282 282 283 282 280 281 279 273 268 267 265 262 254 247 246 243 246 242 222 208 205 196 188 185 183 184 182 183 183 185 189 189 189 189 191 195 194 196 200 187 176 180 196 165 132 138 130 136 137 134 135 131 122 116 111 103 100 99 101 106 108 109 112 121 133 138 143 146 149 152 153 156 158 158 162
295 293 291 291 290 290 291 289 287 286 285 282 281 281 280 281 279 277 276 274 268 264 263 261 258 250 241 239 236 234 219 198 200 203 198 190 184 183 185 184 183 184 186 189 189 190 189 191 195 197 213 236 191 169 169 194 173 146 160 149 145 142 139 139 129 119 118 115 109 107 110 111 110 107 107 114 124 136 141 143 147 151 155 158 159 158 163 172
296 294 292 291 290 290 290 288 287 286 285 283 281 280 279 279 277 273 271 269 264 260 259 256 254 246 237 236 232 221 206 207 204 194 192 189 184 184 186 185 184 185 187 189 189 190 194 202 207 200 209 214 181 170 170 188 168 157 158 146 146 147 145 141 129 125 127 123 117 113 112 110 104 100 109 121 127 136 142 145 148 153 157 161 161 161 169 179
298 296 293 292 291 290 290 288 286 285 285 283 280 279 278 277 275 270 266 263 259 256 255 253 251 243 237 237 229 219 212 216 208 196 192 189 187 187 186 185 185 187 187 187 191 195 201 210 214 211 200 175 170 171 171 176 167 159 159 153 153 154 149 145 136 135 133 127 128 122 108 100 98 102 113 124 127 134 142 146 151 156 159 162 160 162 177 185
301 298 295 292 290 290 290 289 287 284 284 282 280 279 277 276 273 267 262 258 255 252 251 250 248 240 238 236 226 222 223 219 210 203 194 189 190 189 188 187 187 189 188 191 197 199 204 209 213 216 201 186 177 166 167 175 168 163 168 165 159 159 159 154 146 144 140 134 145 144 108 97 106 117 126 130 132 137 146 149 154 160 162 166 162 166 181 182
302 300 297 294 291 289 289 288 287 285 283 281 280 278 277 275 269 263 259 255 252 248 246 246 245 239 234 232 227 222 219 217 211 204 197 192 192 190 190 189 188 189 190 197 202 200 205 206 214 220 204 201 199 182 187 179 168 171 173 170 170 171 168 164 156 154 150 143 162 182 152 125 118 130 139 139 140 140 149 156 159 163 164 168 165 167 176 173
302 301 300 297 292 289 287 287 287 285 283 282 279 277 277 273 266 261 256 252 249 243 241 242 241 237 233 235 231 217 211 217 215 205 199 194 192 191 189 189 189 190 192 198 202 205 206 201 207 209 196 206 217 205 196 180 173 178 175 176 183 177 172 174 171 168 166 165 179 184 158 151 139 145 150 150 151 145 150 159 161 163 164 166 166 168 172 172
301 301 300 299 296 291 287 285 285 284 283 282 279 277 275 271 264 258 253 251 246 237 234 237 236 234 234 233 223 214 212 216 213 204 198 195 194 191 189 189 189 192 196 200 207 211 204 198 203 204 199 208 215 200 188 183 181 182 184 190 190 187 187 186 185 184 182 184 186 185 182 171 158 156 157 161 162 154 153 157 159 164 165 166 165 170 172 171
299 299 299 299 298 295 289 285 283 283 282 282 280 276 272 268 263 256 250 247 241 232 230 234 235 234 232 230 224 220 216 212 207 201 197 196 195 192 190 191 191 193 197 202 210 209 199 200 202 203 207 205 198 191 185 187 188 185 192 199 196 201 201 194 196 193 192 200 191 187 193 174 163 165 166 171 172 163 159 159 162 165 166 168 167 169 169 172
297 297 297 297 297 296 293 287 283 281 281 280 279 275 270 266 261 253 245 240 233 228 229 231 231 232 232 230 229 225 214 206 202 198 196 197 197 195 193 193 192 193 197 203 206 204 197 200 203 202 207 202 196 193 189 190 190 190 198 200 202 209 205 201 207 200 201 213 201 196 197 176 172 176 176 183 181 173 171 168 166 167 169 171 172 172 168 172
295 295 295 295 295 295 294 290 284 280 279 278 276 272 267 263 256 248 240 233 227 226 228 224 219 226 233 224 222 220 209 202 199 197 196 197 197 196 194 195 195 196 200 202 201 200 197 198 203 208 210 203 198 199 199 196 191 197 205 203 206 209 205 207 216 210 209 215 210 211 203 186 190 193 187 193 189 183 183 178 173 172 176 176 175 175 171 174
294 293 293 293 293 294 293 292 287 281 277 274 272 267 261 259 253 244 238 231 229 231 234 230 219 224 232 224 217 212 203 199 199 198 197 197 196 195 194 196 197 199 203 203 198 197 199 201 204 210 211 203 200 203 208 206 196 199 207 207 210 213 212 212 214 211 210 217 214 210 203 194 202 205 198 200 195 193 193 187 184 183 182 184 184 180 176 179
294 293 292 292 292 292 292 292 288 283 277 270 265 260 255 260 258 251 247 240 236 235 235 233 227 227 230 230 220 206 199 201 202 200 198 197 197 196 194 195 199 201 203 203 199 197 203 207 206 210 210 202 202 204 211 216 209 207 214 216 216 218 223 219 214 210 209 219 219 209 207 203 208 214 210 207 203 204 203 195 193 193 191 193 195 189 183 186
293 292 291 291 291 291 291 290 287 283 277 265 257 254 251 257 260 258 256 249 243 239 235 232 230 229 228 227 216 202 201 204 203 202 198 196 199 199 194 195 201 201 201 202 200 200 207 211 208 208 209 204 204 206 216 223 218 222 230 229 222 220 223 216 207 204 204 221 223 207 212 215 215 219 218 215 213 213 211 206 204 201 198 201 202 197 194 192
292 292 291 291 290 290 289 289 287 280 271 261 254 252 252 256 259 259 256 249 245 240 235 230 226 225 222 218 210 204 208 208 203 202 198 197 201 200 195 198 202 202 202 202 202 202 207 211 209 207 209 210 208 210 221 225 223 231 235 226 220 219 222 210 198 200 205 228 231 209 219 229 222 223 225 222 219 219 221 218 214 209 206 208 210 206 204 199
291 291 291 290 290 289 288 288 285 273 264 260 257 255 254 255 257 259 257 251 246 240 235 230 224 222 219 214 209 208 212 210 205 202 199 199 201 201 201 202 203 204 204 204 206 207 209 211 211 210 211 214 215 211 213 221 225 229 228 226 218 215 218 207 197 203 216 236 232 212 223 232 230 235 233 228 224 223 227 224 219 217 213 214 215 211 211 210
289 290 290 290 289 288 287 285 276 269 266 261 259 258 255 254 253 257 257 250 245 238 232 228 222 220 217 213 211 211 214 212 208 204 200 201 202 200 203 205 205 208 207 205 208 211 211 210 212 215 212 211 217 214 210 217 226 224 221 227 230 218 207 199 200 207 223 240 230 219 231 237 233 237 239 239 233 226 226 225 223 221 218 218 219 217 215 215
287 288 288 289 289 288 285 276 268 271 269 259 256 258 257 254 253 256 253 246 244 234 223 219 218 215 213 212 211 211 215 214 210 206 202 203 204 202 204 206 207 210 208 206 211 214 214 210 210 217 216 210 214 218 215 216 223 224 215 223 237 233 216 211 214 217 226 239 233 230 242 244 234 235 238 242 240 235 230 225 225 225 224 223 222 222 220 218
286 285 286 287 287 287 279 270 270 271 263 256 258 262 261 258 254 253 247 242 240 226 213 211 211 211 211 211 208 209 215 211 207 207 204 203 205 205 208 207 206 211 209 207 212 215 216 211 207 214 217 214 215 218 215 211 217 223 215 218 227 227 225 222 220 222 229 240 241 239 244 244 237 237 235 232 237 243 236 227 227 228 226 227 226 226 224 220
284 283 284 284 284 282 273 268 270 265 258 258 261 260 259 259 254 246 240 237 230 215 209 209 210 211 211 209 206 210 215 207 205 208 204 203 205 206 210 211 208 212 211 210 213 213 215 213 208 209 213 215 216 216 212 210 215 221 226 231 221 222 238 235 222 231 241 247 248 241 240 244 244 238 232 229 234 240 236 230 229 231 230 230 230 228 225 224
282 281 281 282 282 277 268 264 263 261 258 257 257 255 254 255 250 239 234 232 225 216 213 211 211 211 209 206 206 213 214 208 208 207 201 204 207 207 212 214 212 213 214 216 216 213 213 216 216 212 211 215 214 212 211 210 214 220 231 241 224 222 245 244 232 246 252 250 251 241 232 242 252 244 229 228 234 235 232 231 232 235 234 230 230 230 227 227
281 279 279 279 278 273 265 261 259 258 257 253 252 252 250 246 240 234 230 228 226 219 212 212 212 208 206 205 208 213 212 209 208 203 200 204 206 208 214 216 214 214 215 217 219 217 213 216 222 217 212 215 212 210 212 210 214 220 222 228 223 218 233 237 235 250 254 249 252 247 237 242 253 248 233 231 236 235 230 233 238 239 234 229 230 232 230 229
280 277 276 275 271 268 264 259 255 254 252 249 250 249 243 236 233 233 229 226 226 216 208 211 210 206 207 207 209 210 209 210 208 201 200 204 205 207 212 215 213 214 215 216 218 219 215 214 219 217 212 213 211 210 211 209 211 214 214 220 222 216 223 234 237 245 252 251 252 250 247 248 251 250 247 240 235 233 230 230 236 236 232 229 230 233 234 232
280 277 274 270 266 262 258 254 253 253 250 248 247 242 235 231 230 229 226 223 220 214 214 214 208 207 208 209 209 208 207 210 208 202 201 205 206 207 211 212 209 210 213 214 213 215 218 216 213 213 212 210 208 207 209 210 209 209 214 220 221 219 221 231 237 240 248 252 252 253 253 254 251 247 255 248 228 226 230 231 233 233 233 233 230 231 234 233
280 277 273 267 261 257 252 252 252 250 248 243 240 234 231 231 230 227 225 220 214 215 220 216 210 209 208 209 210 207 206 210 207 203 204 207 208 209 211 212 210 211 213 212 211 210 213 213 209 210 209 207 209 210 208 208 207 208 215 218 219 222 223 229 238 243 248 249 249 251 253 261 256 242 253 253 224 217 229 233 232 231 232 235 233 230 232 234
280 276 270 263 258 254 250 249 246 243 241 235 231 229 228 230 230 227 225 220 218 219 218 214 209 208 209 211 210 206 208 211 208 205 206 207 210 210 211 213 214 214 212 210 210 208 209 211 208 210 206 203 211 217 210 206 208 211 214 217 220 221 221 227 235 242 249 251 250 246 243 253 254 241 260 256 209 207 225 224 221 228 233 236 236 233 232 234
280 274 267 260 256 251 247 243 238 235 233 228 228 229 228 228 227 227 225 219 220 223 221 218 211 208 211 213 211 207 209 211 207 207 209 208 211 212 210 213 214 211 210 210 209 207 213 217 211 209 207 202 209 215 208 207 212 214 215 220 224 222 222 231 242 251 259 263 260 250 240 244 254 251 248 227 202 211 224 221 223 238 241 240 239 235 233 235
278 271 264 257 253 248 241 237 233 230 228 226 228 229 228 228 224 223 223 218 220 230 235 225 214 211 211 211 212 208 207 211 206 207 212 211 212 214 212 213 211 209 210 211 208 206 214 220 210 207 209 206 208 212 209 209 212 214 216 221 227 227 226 233 243 249 257 260 254 246 242 243 255 256 237 223 224 226 231 240 244 243 245 247 242 236 236 237
274 269 263 255 250 243 234 231 228 225 225 226 228 231 230 229 227 224 224 224 226 234 239 228 217 217 213 208 212 208 204 209 208 208 214 212 213 214 213 212 211 210 213 213 210 209 217 222 208 204 210 210 210 215 217 214 213 216 217 218 224 230 231 237 247 247 252 257 249 242 244 243 250 258 231 215 222 225 231 245 245 238 242 250 249 239 236 239
271 267 262 254 245 235 228 227 225 223 225 227 230 233 232 231 229 226 226 232 233 229 233 232 219 216 216 210 210 208 204 207 208 210 214 213 214 213 212 213 211 211 215 214 211 210 217 226 212 204 210 212 210 215 219 216 215 219 220 215 218 226 231 236 245 248 250 254 251 247 251 251 250 248 222 210 218 219 223 232 241 247 245 247 252 243 235 239
268 263 258 250 236 226 224 224 224 224 226 227 229 232 233 233 232 229 229 237 238 228 229 233 221 213 218 215 211 208 206 208 210 212 214 214 213 212 211 213 210 209 212 211 211 212 217 225 216 204 208 211 208 213 218 215 215 219 220 218 221 230 235 233 231 237 244 247 249 248 247 247 249 243 219 214 225 226 226 236 251 266 261 250 250 246 239 240
263 256 252 240 224 220 222 223 225 226 227 229 230 231 232 233 232 230 230 235 236 228 225 228 221 215 219 218 215 211 208 210 213 213 214 212 211 211 210 211 210 208 209 211 214 217 219 222 216 204 207 212 211 214 218 216 215 217 218 221 225 228 234 234 229 231 237 243 248 250 250 247 254 249 222 213 230 236 243 256 259 265 271 263 251 246 247 245
259 252 245 232 221 220 220 224 227 228 229 230 231 233 233 233 232 229 228 232 233 227 222 223 223 222 223 220 218 215 209 210 213 215 215 212 212 213 210 210 209 205 208 212 213 214 216 216 213 207 212 219 217 216 219 219 218 217 216 221 224 223 228 232 231 229 233 241 246 252 257 250 243 243 225 222 241 242 243 255 258 258 263 264 260 254 254 252
252 246 239 227 222 223 224 229 230 229 230 231 231 233 233 235 235 230 228 230 230 225 221 223 227 230 231 225 221 219 213 210 213 217 219 215 213 214 210 208 208 205 206 209 209 211 214 215 214 211 216 224 220 215 219 221 223 222 218 218 220 222 226 228 229 228 231 238 241 245 254 248 236 238 232 231 244 245 242 253 263 265 259 254 261 267 265 259
247 244 241 231 225 226 229 232 231 229 231 232 232 234 234 235 235 230 229 228 225 224 223 224 226 227 228 226 224 222 218 215 214 217 222 220 215 214 209 206 207 206 205 207 208 211 215 219 220 215 216 222 218 215 218 220 222 224 221 219 221 227 230 233 236 236 235 239 239 241 248 240 229 235 232 228 240 249 249 255 264 266 263 259 265 273 278 270
251 247 245 237 229 227 230 231 230 230 231 232 233 235 235 236 234 229 228 228 226 225 224 223 223 224 225 225 225 225 223 220 216 217 222 223 217 213 209 206 206 206 205 206 207 210 213 216 219 216 214 214 213 214 216 215 218 224 224 222 223 227 229 234 239 238 237 242 241 241 243 230 222 235 236 235 248 255 254 257 260 260 262 266 270 272 277 277
252 245 240 236 229 228 231 230 230 231 231 231 233 234 235 235 233 230 229 228 227 227 227 225 224 223 224 224 224 227 228 227 224 221 221 220 216 212 209 207 208 208 207 205 206 209 212 214 216 217 216 213 212 217 221 219 218 224 227 225 225 226 226 230 235 234 235 239 238 239 240 227 222 232 239 247 257 262 263 264 264 266 266 264 270 273 272 275
247 239 236 233 227 228 231 230 232 233 232 233 234 235 235 234 232 230 228 228 226 225 228 228 224 223 224 223 224 228 231 229 227 227 222 217 213 211 210 208 207 208 208 206 205 210 216 219 220 221 222 221 218 219 225 225 220 219 223 227 230 232 231 231 234 235 235 236 237 238 239 235 231 235 245 254 257 259 261 262 263 269 274 271 271 273 270 272
239 232 235 237 229 226 228 228 229 231 231 232 234 236 237 236 233 228 225 226 226 225 228 232 227 223 222 222 224 228 230 227 225 230 225 216 213 212 208 205 204 204 206 207 209 212 218 222 223 223 225 228 228 225 223 224 223 222 225 229 231 234 236 237 238 237 234 234 238 239 237 238 238 239 246 251 252 254 256 258 260 264 270 274 274 273 272 273
237 232 237 243 233 226 227 228 230 231 231 230 231 235 239 239 237 232 226 225 225 223 225 229 227 225 223 223 223 223 225 224 224 230 228 216 214 212 205 203 202 202 206 211 212 214 219 225 227 225 225 228 232 234 232 230 230 228 231 234 232 231 236 240 243 243 239 238 242 240 237 242 243 240 243 247 248 252 253 254 260 264 268 274 275 275 277 275
243 237 237 241 235 229 234 237 236 235 232 229 229 232 236 239 239 235 229 224 221 221 223 225 226 226 225 224 223 221 221 223 226 232 232 224 219 211 205 204 204 203 208 213 216 217 219 226 229 226 226 227 229 232 234 237 238 233 233 238 236 233 234 237 242 245 243 243 244 241 242 247 248 247 251 254 254 255 257 260 267 274 277 278 278 277 279 279
247 240 238 241 237 232 234 237 236 234 231 229 229 230 231 235 236 232 227 223 220 219 222 223 226 227 225 224 225 223 221 224 228 231 230 228 222 211 207 209 210 210 211 215 218 217 217 224 226 224 229 231 229 229 232 236 240 238 237 239 240 239 236 236 239 242 244 246 246 245 245 247 248 250 252 255 256 256 259 262 266 271 275 277 277 279 280 281
251 246 242 241 236 231 231 233 233 232 228 228 230 230 230 233 234 231 228 226 225 222 222 224 226 227 226 228 227 222 218 219 222 224 223 224 218 207 207 211 214 215 215 216 218 216 217 224 227 226 232 234 232 233 233 233 237 240 241 240 239 240 240 240 241 241 242 245 246 246 247 248 249 248 247 251 254 254 255 258 260 265 272 275 277 280 282 283
255 249 243 239 235 231 230 230 230 230 229 230 231 232 233 234 234 233 230 229 227 223 222 223 225 225 225 225 222 221 222 220 221 224 223 223 220 212 209 210 212 214 216 216 218 218 219 224 226 228 233 234 234 237 238 236 237 240 242 241 238 238 241 243 243 243 243 244 242 243 246 248 248 246 246 250 253 253 256 261 265 270 275 278 280 282 283 284